Regional Weather Roundup
Issued by NWS

Home | Current Version | Previous Version | Graphics & Text | Print | Product List | Glossary On
Versions: 1 2 3 4 5 6 7 8 9 10 11 12 13 14 15 16 17 18 19 20 21 22 23 24 25 26 27 28 29 30 31 32 33 34 35 36 37 38 39 40 41 42 43 44 45 46 47 48 49 50
000
ASUS43 KOAX 101902
RWRNE

WEATHER ROUNDUP FOR NEBRASKA
NATIONAL WEATHER SERVICE OMAHA NE
100 PM CST WED FEB 10 2016

NOTES: SATELLITE DATA IS BEING USED TO AUGMENT CLOUD COVER ABOVE
       12000 FEET.
       "FAIR" INDICATES FEW OR NO CLOUDS BELOW 12,000 FEET WITH NO
       SIGNIFICANT WEATHER AND/OR OBSTRUCTIONS TO VISIBILITY.

  * THESE STATIONS DO NOT REPORT WEATHER SUCH AS RAIN...SNOW OR FOG.

NEZ001>004-019>022-054>056-102000-
NEBRASKA PANHANDLE

CITY           SKY/WX    TMP DP  RH WIND       PRES   REMARKS
SCOTTSBLUFF    SUNNY     59  25  27 W23G29    30.02F
ALLIANCE       SUNNY     40  31  70 W12       29.99F WCI  33
CHADRON        SUNNY     61  27  27 W24G31    29.97F
KIMBALL        CLOUDY    55  24  30 NW23G29   30.07F
SIDNEY         CLOUDY    50  29  44 NW14      30.04F
$$

NEZ057>060-069>072-079>082-102000-
SOUTHWEST NEBRASKA

CITY           SKY/WX    TMP DP  RH WIND       PRES   REMARKS
NORTH PLATTE   SUNNY     49  30  48 NW15      29.93F
IMPERIAL       SUNNY     48  29  47 W14       30.00F
LEXINGTON      SUNNY     46  31  54 NW14      29.91F
MCCOOK         SUNNY     48  29  47 W17       29.96F
$$

NEZ005>010-023>029-035>040-094-102000-
NORTH CENTRAL NEBRASKA

CITY           SKY/WX    TMP DP  RH WIND       PRES   REMARKS
VALENTINE      SUNNY     54  29  38 NW16G24   29.87F
AINSWORTH      SUNNY     58  25  28 NW23G31   29.85F
BROKEN BOW     SUNNY     55  30  38 W9        29.88F
ORD            SUNNY     48  30  49 W9        29.85F
$$

NEZ041-046>049-061>064-073>077-083>087-102000-
SOUTH CENTRAL NEBRASKA

CITY           SKY/WX    TMP DP  RH WIND       PRES   REMARKS
GRAND ISLAND   SUNNY     43  30  60 W10       29.88F
HASTINGS       SUNNY     44  30  57 W10       29.88F
HEBRON         SUNNY     43  31  62 W8        29.90F
KEARNEY *      SUNNY     46  30  53 W9        29.90F
YORK           SUNNY     41  32  70 W7        29.87F
$$

NEZ011>018-030>034-042>045-102000-
NORTHEAST NEBRASKA

CITY           SKY/WX    TMP DP  RH WIND       PRES   REMARKS
NORFOLK        SUNNY     37  25  61 CALM      29.86S
BLAIR          SUNNY     34  22  62 SE5       29.90F WCI  30
COLUMBUS *     SUNNY     37  23  56 NW6       29.88S WCI  33
FREMONT        SUNNY     32  22  66 CALM      29.90F
TEKAMAH        SUNNY     31  22  69 E12       29.93F WCI  22
$$

NEZ050>053-065>068-078-088>093-102000-
SOUTHEAST NEBRASKA

CITY           SKY/WX    TMP DP  RH WIND       PRES   REMARKS
LINCOLN        SUNNY     37  27  67 CALM      29.90F
OMAHA EPPLEY   MOSUNNY   34  22  61 S8        29.92F WCI  27
BEATRICE       SUNNY     47  31  53 W10       29.88F
FALLS CITY     SUNNY     46  23  40 VRB7      29.91F
$$

NEZ044-045-051>053-067-102000-
OMAHA AREA

CITY           SKY/WX    TMP DP  RH WIND       PRES   REMARKS
OMAHA EPPLEY   MOSUNNY   34  22  61 S8        29.92F WCI  27
BLAIR          SUNNY     34  22  62 SE5       29.90F WCI  30
FREMONT        SUNNY     32  22  66 CALM      29.90F
OFFUTT AFB     SUNNY     36  21  54 SE5       29.91F WCI  32
$$



USA.gov is the U.S. government's official web portal to all federal, state and local government web resources and services.